FW6924 Weather Reports


Display with metric or nautical units.
time (UTC)temp
F
wind
direction
speed
MPH
gust
MPH
rain 1hr
in
rain 24hr
in
rain mn
in
humidity
%
barometer
mb
20260509162004 88 232 6.0 10.0 0.00 0.00 0.00 55 1012.3
20260509161009 88 189 5.0 10.0 0.00 0.00 0.00 59 1012.4
20260509160004 87 200 5.0 13.0 0.00 0.00 0.00 59 1012.5
20260509154001 88 236 3.0 10.0 0.00 0.00 0.00 59 1012.4
20260509153001 87 227 2.0 5.0 0.00 0.00 0.00 61 1012.4
20260509152004 86 201 4.0 9.0 0.00 0.00 0.00 65 1012.5
20260509151002 86 201 4.0 9.0 0.00 0.00 0.00 66 1012.5
20260509150006 86 196 4.0 8.0 0.00 0.00 0.00 65 1012.5
20260509145001 86 195 4.0 8.0 0.00 0.00 0.00 68 1012.5
20260509144004 86 207 1.0 6.0 0.00 0.00 0.00 70 1012.4
20260509143001 85 153 2.0 5.0 0.00 0.00 0.00 72 1012.4
20260509141001 84 112 2.0 6.0 0.00 0.00 0.00 73 1012.4
20260509140006 83 84 2.0 8.0 0.00 0.00 0.00 73 1012.4
20260509135001 83 131 2.0 6.0 0.00 0.00 0.00 74 1012.4
20260509134004 82 82 1.0 4.0 0.00 0.00 0.00 77 1012.3
20260509131001 80 127 2.0 6.0 0.00 0.00 0.00 81 1012.1
20260509130006 79 120 1.0 5.0 0.00 0.00 0.00 83 1012.0
20260509125001 78 149 1.0 6.0 0.00 0.00 0.00 84 1011.9
20260509124002 77 134 1.0 6.0 0.00 0.00 0.00 86 1011.8
20260509122001 75 114 1.0 4.0 0.00 0.00 0.00 91 1011.8
20260509121003 74 96 1.0 4.0 0.00 0.00 0.00 92 1011.7
20260509120004 73 114 0.0 3.0 0.00 0.00 0.00 93 1011.6
20260509115002 72 117 0.0 0.0 0.00 0.00 0.00 94 1011.6
20260509114003 72 118 1.0 4.0 0.00 0.00 0.00 94 1011.2
20260509113002 71 77 1.0 3.0 0.00 0.00 0.00 94 1011.3
20260509112003 71 360 0.0 1.0 0.00 0.00 0.00 94 1011.1
20260509110006 70 355 0.0 2.0 0.00 0.00 0.00 93 1011.0
20260509104003 70 355 0.0 0.0 0.00 0.00 0.00 92 1010.7
20260509102003 70 355 0.0 0.0 0.00 0.00 0.00 92 1010.8
20260509101002 71 355 0.0 0.0 0.00 0.00 0.00 92 1010.7
20260509100006 71 355 0.0 0.0 0.00 0.00 0.00 91 1010.6
20260509094004 71 355 0.0 0.0 0.00 0.00 0.00 91 1010.8
20260509093001 71 355 0.0 0.0 0.00 0.00 0.00 91 1010.9
20260509092003 71 355 0.0 0.0 0.00 0.00 0.00 90 1011.0
20260509090006 72 355 0.0 0.0 0.00 0.00 0.00 90 1010.8
20260509085002 72 355 0.0 0.0 0.00 0.00 0.00 89 1010.9
20260509084001 72 355 0.0 1.0 0.00 0.00 0.00 90 1011.0
20260509083001 72 355 0.0 0.0 0.00 0.00 0.00 89 1011.1
20260509082001 73 355 0.0 2.0 0.00 0.00 0.00 89 1011.2
20260509081001 73 348 0.0 0.0 0.00 0.00 0.00 88 1011.4
20260509080004 73 348 0.0 1.0 0.00 0.00 0.00 88 1011.6
20260509075003 73 348 0.0 1.0 0.00 0.00 0.00 88 1011.7
20260509074004 74 348 0.0 2.0 0.00 0.00 0.00 88 1011.5
20260509073002 74 346 0.0 2.0 0.00 0.00 0.00 88 1011.5
20260509072003 74 351 0.0 2.0 0.00 0.00 0.00 88 1011.6
20260509071001 74 351 1.0 4.0 0.00 0.00 0.00 88 1011.6
20260509065001 74 93 0.0 0.0 0.00 0.00 0.00 87 1011.8
20260509064001 75 93 0.0 0.0 0.00 0.00 0.00 86 1011.9
20260509063001 75 93 0.0 0.0 0.00 0.00 0.00 86 1011.9
20260509062001 75 93 0.0 0.0 0.00 0.00 0.00 86 1012.2
20260509061001 75 93 0.0 0.0 0.00 0.00 0.00 86 1012.2
20260509060004 75 93 0.0 1.0 0.00 0.00 0.00 85 1012.3
20260509055003 75 94 0.0 3.0 0.00 0.00 0.00 85 1012.3
20260509054002 76 89 0.0 3.0 0.00 0.00 0.00 85 1012.5
20260509053003 76 339 0.0 3.0 0.00 0.00 0.00 85 1012.6
20260509052008 76 328 0.0 2.0 0.00 0.00 0.00 84 1012.7
20260509050005 76 321 0.0 2.0 0.00 0.00 0.00 84 1012.8
20260509045005 76 333 0.0 2.0 0.00 0.00 0.00 83 1012.8
20260509044003 76 313 0.0 0.0 0.00 0.00 0.00 83 1013.0
20260509043006 76 313 0.0 0.0 0.00 0.00 0.00 83 1013.1
20260509042005 76 313 0.0 0.0 0.00 0.00 0.00 82 1013.2
20260509040009 76 311 0.0 0.0 0.00 0.00 0.00 82 1013.1
20260509035002 77 311 0.0 0.0 0.00 0.00 0.00 82 1013.3
20260509034002 77 311 0.0 0.0 0.00 0.00 0.00 82 1013.3
20260509033005 77 310 0.0 0.0 0.00 0.00 0.00 81 1013.1
20260509032003 78 310 0.0 0.0 0.00 0.00 0.00 80 1013.0
20260509031005 78 309 0.0 0.0 0.00 0.00 0.00 80 1012.7
20260509025004 78 313 1.0 3.0 0.00 0.00 0.00 79 1012.4
20260509024005 79 315 1.0 4.0 0.00 0.00 0.00 79 1012.4
20260509023003 79 306 0.0 4.0 0.00 0.00 0.00 78 1012.3
20260509022005 79 294 1.0 3.0 0.00 0.00 0.00 77 1012.1
20260509015003 80 300 2.0 4.0 0.00 0.00 0.00 75 1011.9
20260509014005 81 288 3.0 7.0 0.00 0.00 0.00 75 1011.7
20260509013003 81 292 2.0 8.0 0.00 0.00 0.00 74 1011.7
20260509012024 81 284 3.0 5.0 0.00 0.00 0.00 73 1011.6
20260509010006 82 265 4.0 9.0 0.00 0.00 0.00 70 1011.4
20260509005002 83 261 4.0 7.0 0.00 0.00 0.00 66 1011.2
20260509004004 83 277 3.0 7.0 0.00 0.00 0.00 65 1011.2
20260509003002 84 271 3.0 7.0 0.00 0.00 0.00 63 1011.0
20260509001002 85 281 4.0 7.0 0.00 0.00 0.00 59 1010.7
20260509000014 85 266 4.0 9.0 0.00 0.00 0.00 57 1010.6
20260508235002 86 271 5.0 10.0 0.00 0.00 0.00 56 1010.4
20260508233002 86 275 4.0 9.0 0.00 0.00 0.00 58 1010.2
20260508232002 87 279 5.0 9.0 0.00 0.00 0.00 59 1010.2
20260508230005 87 285 7.0 12.0 0.00 0.00 0.00 59 1010.1
20260508225002 88 263 7.0 12.0 0.00 0.00 0.00 59 1009.9
20260508224002 88 260 7.0 13.0 0.00 0.00 0.00 59 1009.8
20260508223002 89 253 7.0 12.0 0.00 0.00 0.00 58 1009.7
20260508222002 89 249 6.0 11.0 0.00 0.00 0.00 57 1009.8
20260508221002 90 261 5.0 11.0 0.00 0.00 0.00 57 1009.9
20260508215002 90 279 4.0 8.0 0.00 0.00 0.00 56 1009.6
20260508211002 90 254 4.0 9.0 0.00 0.00 0.00 57 1009.9
20260508210006 90 217 5.0 9.0 0.00 0.00 0.00 57 1010.0
20260508205002 90 273 5.0 10.0 0.00 0.00 0.00 58 1010.1
20260508204004 90 275 5.0 11.0 0.00 0.00 0.00 59 1010.1
20260508203003 90 197 5.0 10.0 0.00 0.00 0.00 59 1010.2
20260508202004 90 199 5.0 11.0 0.00 0.00 0.00 60 1010.3
20260508201002 90 198 6.0 11.0 0.00 0.00 0.00 60 1010.4
20260508200006 90 283 6.0 11.0 0.00 0.00 0.00 60 1010.6
20260508195001 90 252 6.0 11.0 0.00 0.00 0.00 61 1010.8
20260508194004 89 251 5.0 9.0 0.00 0.00 0.00 61 1010.8
20260508193002 90 238 4.0 10.0 0.00 0.00 0.00 61 1011.0
20260508192004 89 194 6.0 10.0 0.00 0.00 0.00 62 1011.1
20260508190006 90 232 5.0 12.0 0.00 0.00 0.00 62 1011.4
20260508185002 90 201 5.0 9.0 0.00 0.00 0.00 62 1011.7
20260508184004 89 267 6.0 11.0 0.00 0.00 0.00 64 1012.0
20260508183005 90 204 4.0 10.0 0.00 0.00 0.00 63 1012.1
20260508182004 88 223 6.0 11.0 0.00 0.00 0.00 65 1012.1
20260508181002 89 228 6.0 11.0 0.00 0.00 0.00 59 1012.3
20260508180006 88 194 3.0 9.0 0.00 0.00 0.00 63 1012.3
20260508175002 88 243 3.0 12.0 0.00 0.00 0.00 61 1012.5
20260508174004 88 64 2.0 8.0 0.00 0.00 0.00 55 1012.4
20260508172004 89 5 2.0 5.0 0.00 0.00 0.00 56 1012.7
20260508171002 89 284 2.0 8.0 0.00 0.00 0.00 56 1012.8
20260508170006 88 321 3.0 6.0 0.00 0.00 0.00 58 1012.9
20260508165001 89 302 2.0 9.0 0.00 0.00 0.00 58 1013.1
20260508164004 89 26 2.0 8.0 0.00 0.00 0.00 57 1013.2
20260508163002 89 298 3.0 9.0 0.00 0.00 0.00 58 1013.5